Vorticity
35 13 1 14 16 26 40 1 2 3 4 8 7 8 8 9 7 7 8 8 7 7
4 16 24 15 31 31 15 30 13 0 2 7 6 8 9 9 9 7 7 7 6 6
2 6 2 1 4 13 23 36 41 -11 5 8 10 9 9 9 9 7 6 6 6 6
-5 3 10 -4 9 19 19 14 81 -2 9 4 6 9 8 8 8 8 8 7 7 7
20 0 -1 -2 2 -4 25 15 3 59 -8 -2 11 9 10 8 9 8 8 8 8 7
-3 14 34 19 12 13 8 18 10 36 28 -11 3 -6 7 11 7 9 10 10 9 9
18 5 4 3 14 1 22 12 23 17 -2 -8 1 6 11 -18 -3 10 12 4 7 5
7 -2 10 6 19 -5 16 26 16 25 35 13 12 16 9 22 15 -7 -1 6 -1 -0
-6 16 9 10 10 0 -2 2 30 9 10 9 7 36 9 59 22 9 16 16 2 -9
6 20 12 7 10 14 -2 17 19 13 -1 5 7 7 9 18 22 40 41 49 50 25
11 12 12 7 1 9 16 5 9 15 12 4 3 5 11 12 10 12 10 9 13 8
7 7 7 10 11 13 12 11 9 10 14 10 3 1 4 8 13 11 7 2 4 4
4 11 8 7 7 6 5 4 8 10 13 10 10 6 9 -0 13 8 12 13 7 13
7 12 12 12 9 12 13 11 11 10 9 9 8 8 8 8 11 13 18 19 15 20
Height
2997 3000 3007 3008 3010 3012 3016 3022 3031 3042 3046 3054 3061 3067 3072 3078 3083 3088 3093 3098 3102 3105
3000 3004 3006 3008 3010 3011 3013 3017 3023 3035 3041 3047 3053 3061 3067 3073 3077 3082 3088 3092 3096 3099
3001 3003 3006 3007 3009 3009 3011 3016 3022 3028 3036 3043 3051 3057 3062 3068 3072 3077 3082 3087 3089 3093
3002 3005 3006 3007 3009 3011 3011 3016 3021 3029 3036 3040 3047 3053 3059 3063 3069 3074 3078 3082 3085 3088
3003 3003 3005 3008 3010 3010 3012 3014 3020 3027 3035 3040 3046 3051 3055 3060 3064 3069 3073 3076 3079 3082
2998 3000 3005 3007 3010 3011 3014 3017 3020 3024 3032 3039 3045 3047 3052 3056 3062 3066 3068 3072 3074 3076
3002 3002 3005 3006 3009 3012 3015 3017 3019 3025 3030 3035 3041 3045 3046 3053 3057 3060 3063 3065 3067 3069
3001 3003 3005 3007 3009 3011 3015 3017 3019 3023 3026 3031 3035 3038 3041 3044 3047 3053 3054 3056 3059 3061
3001 3004 3005 3007 3008 3011 3013 3015 3017 3021 3025 3029 3033 3035 3036 3037 3042 3046 3047 3048 3051 3053
3003 3003 3004 3007 3010 3011 3014 3015 3017 3021 3024 3027 3029 3031 3032 3034 3036 3038 3039 3039 3042 3044
3003 3004 3005 3008 3011 3014 3013 3016 3019 3020 3024 3025 3026 3027 3029 3030 3031 3033 3035 3036 3038 3040
3004 3005 3008 3010 3011 3013 3014 3015 3017 3018 3021 3021 3022 3023 3025 3027 3029 3030 3032 3034 3035 3037
3004 3005 3008 3007 3007 3010 3012 3014 3014 3016 3016 3018 3017 3020 3021 3023 3026 3027 3030 3029 3030 3030
3004 3004 3004 3002 3005 3007 3008 3008 3009 3011 3012 3013 3013 3015 3016 3018 3019 3022 3024 3024 3023 3026